| time (UTC) | temp F | wind direction | speed knots | gust knots | rain 1hr in | rain 24hr in | rain mn in | humidity % | barometer mb |
| 20260507105415 | 48 | 268 | 0.0 | 0.0 | 0.00 | 0.11 | 0.11 | 95 | 1007.1 |
| 20260507104912 | 48 | 272 | 0.0 | 0.0 | 0.00 | 0.11 | 0.11 | 95 | 1007.1 |
| 20260507104408 | 48 | 272 | 0.0 | 0.0 | 0.00 | 0.11 | 0.11 | 95 | 1007.2 |
| 20260507103904 | 47 | 273 | 0.0 | 0.0 | 0.00 | 0.11 | 0.11 | 95 | 1007.1 |
| 20260507103401 | 47 | 261 | 0.0 | 0.0 | 0.00 | 0.11 | 0.11 | 95 | 1007.2 |
| 20260507102857 | 47 | 262 | 0.0 | 0.0 | 0.00 | 0.11 | 0.11 | 95 | 1007.5 |
| 20260507102354 | 46 | 264 | 0.0 | 0.0 | 0.00 | 0.11 | 0.11 | 95 | 1007.3 |
| 20260507101850 | 46 | 281 | 0.0 | 0.0 | 0.00 | 0.11 | 0.11 | 95 | 1006.9 |
| 20260507101350 | 46 | 281 | 0.0 | 0.0 | 0.00 | 0.11 | 0.11 | 95 | 1006.7 |
| 20260507100848 | 46 | 291 | 0.0 | 0.0 | 0.00 | 0.11 | 0.11 | 95 | 1006.8 |
| 20260507100346 | 46 | 281 | 0.0 | 0.0 | 0.00 | 0.11 | 0.11 | 95 | 1006.7 |
| 20260507095844 | 46 | 282 | 0.0 | 0.0 | 0.00 | 0.11 | 0.11 | 95 | 1006.5 |
| 20260507095340 | 46 | 282 | 0.0 | 0.0 | 0.00 | 0.11 | 0.11 | 95 | 1006.7 |
| 20260507094837 | 46 | 283 | 0.0 | 0.0 | 0.00 | 0.11 | 0.11 | 95 | 1006.7 |
| 20260507094333 | 46 | 291 | 0.0 | 0.0 | 0.00 | 0.11 | 0.11 | 95 | 1006.5 |
| 20260507093831 | 46 | 270 | 0.0 | 0.0 | 0.00 | 0.11 | 0.11 | 95 | 1006.9 |
| 20260507093329 | 46 | 270 | 0.0 | 0.0 | 0.00 | 0.11 | 0.11 | 95 | 1006.7 |
| 20260507092826 | 46 | 272 | 0.0 | 0.0 | 0.00 | 0.11 | 0.11 | 95 | 1006.6 |
| 20260507092323 | 46 | 273 | 0.0 | 0.0 | 0.00 | 0.11 | 0.11 | 95 | 1006.7 |
| 20260507091819 | 46 | 274 | 0.0 | 0.0 | 0.00 | 0.11 | 0.11 | 95 | 1006.5 |
| 20260507091316 | 46 | 265 | 0.0 | 0.0 | 0.00 | 0.11 | 0.11 | 95 | 1006.8 |
| 20260507090817 | 46 | 264 | 0.0 | 0.0 | 0.00 | 0.11 | 0.11 | 95 | 1007.1 |
| 20260507090314 | 46 | 266 | 0.0 | 0.0 | 0.00 | 0.11 | 0.11 | 95 | 1006.7 |
| 20260507085811 | 46 | 265 | 0.0 | 0.0 | 0.00 | 0.11 | 0.11 | 95 | 1007.0 |
| 20260507085308 | 46 | 248 | 0.0 | 0.0 | 0.00 | 0.11 | 0.11 | 95 | 1006.9 |
| 20260507084805 | 46 | 280 | 0.0 | 0.0 | 0.00 | 0.11 | 0.11 | 95 | 1006.5 |
| 20260507084301 | 46 | 269 | 0.0 | 0.0 | 0.00 | 0.11 | 0.11 | 95 | 1006.2 |
| 20260507083759 | 46 | 293 | 0.0 | 0.0 | 0.00 | 0.11 | 0.11 | 95 | 1006.3 |
| 20260507083255 | 46 | 293 | 0.0 | 0.9 | 0.00 | 0.11 | 0.11 | 95 | 1006.1 |
| 20260507082752 | 46 | 275 | 0.0 | 0.0 | 0.00 | 0.11 | 0.11 | 95 | 1006.4 |
| 20260507082247 | 47 | 290 | 0.0 | 0.0 | 0.00 | 0.11 | 0.11 | 95 | 1006.4 |
| 20260507081744 | 47 | 288 | 0.0 | 0.9 | 0.00 | 0.11 | 0.11 | 95 | 1006.5 |
| 20260507081240 | 47 | 310 | 0.0 | 0.0 | 0.00 | 0.11 | 0.11 | 95 | 1006.5 |
| 20260507080737 | 47 | 287 | 0.0 | 0.9 | 0.00 | 0.11 | 0.11 | 95 | 1006.4 |
| 20260507080233 | 48 | 294 | 0.0 | 0.0 | 0.00 | 0.11 | 0.11 | 95 | 1006.5 |
| 20260507075729 | 48 | 294 | 0.0 | 0.0 | 0.00 | 0.11 | 0.11 | 95 | 1006.3 |
| 20260507075225 | 48 | 300 | 0.0 | 0.0 | 0.00 | 0.11 | 0.11 | 95 | 1006.7 |
| 20260507074722 | 48 | 270 | 0.0 | 0.0 | 0.00 | 0.11 | 0.11 | 95 | 1006.9 |
| 20260507074220 | 48 | 270 | 0.0 | 0.0 | 0.00 | 0.11 | 0.11 | 95 | 1007.0 |
| 20260507073716 | 48 | 271 | 0.0 | 0.0 | 0.00 | 0.11 | 0.11 | 95 | 1006.6 |
| 20260507073213 | 48 | 294 | 0.0 | 0.0 | 0.00 | 0.11 | 0.11 | 95 | 1006.2 |
| 20260507072711 | 48 | 297 | 0.0 | 0.0 | 0.00 | 0.11 | 0.11 | 95 | 1006.4 |
| 20260507072207 | 48 | 270 | 0.0 | 0.0 | 0.00 | 0.11 | 0.11 | 95 | 1006.6 |
| 20260507071705 | 48 | 295 | 0.0 | 0.0 | 0.00 | 0.11 | 0.11 | 95 | 1006.2 |
| 20260507071201 | 48 | 295 | 0.0 | 0.0 | 0.00 | 0.11 | 0.11 | 95 | 1006.2 |
| 20260507070659 | 48 | 294 | 0.0 | 0.0 | 0.00 | 0.11 | 0.11 | 95 | 1006.1 |
| 20260507070155 | 48 | 294 | 0.0 | 0.0 | 0.00 | 0.11 | 0.11 | 95 | 1006.2 |
| 20260507065652 | 48 | 293 | 0.0 | 0.0 | 0.00 | 0.11 | 0.11 | 95 | 1006.0 |
| 20260507065149 | 48 | 293 | 0.0 | 0.0 | 0.00 | 0.11 | 0.11 | 95 | 1005.8 |
| 20260507064646 | 48 | 299 | 0.0 | 0.0 | 0.00 | 0.11 | 0.11 | 95 | 1005.7 |
| 20260507064144 | 48 | 290 | 0.0 | 0.0 | 0.00 | 0.11 | 0.11 | 95 | 1006.0 |
| 20260507063642 | 48 | 292 | 0.0 | 0.0 | 0.00 | 0.11 | 0.11 | 95 | 1005.7 |
| 20260507063139 | 48 | 292 | 0.0 | 0.0 | 0.00 | 0.11 | 0.11 | 95 | 1005.8 |
| 20260507062636 | 48 | 298 | 0.0 | 0.0 | 0.00 | 0.11 | 0.11 | 95 | 1005.9 |
| 20260507062133 | 48 | 297 | 0.0 | 0.9 | 0.00 | 0.11 | 0.11 | 95 | 1005.7 |
| 20260507061631 | 49 | 262 | 0.0 | 0.0 | 0.00 | 0.11 | 0.11 | 95 | 1005.9 |
| 20260507061129 | 49 | 289 | 0.0 | 0.0 | 0.00 | 0.11 | 0.11 | 95 | 1005.7 |
| 20260507060627 | 49 | 294 | 0.0 | 0.9 | 0.00 | 0.11 | 0.11 | 95 | 1005.6 |
| 20260507060122 | 49 | 289 | 0.0 | 0.0 | 0.07 | 0.11 | 0.11 | 95 | 1005.6 |
| 20260507055618 | 49 | 294 | 0.0 | 0.9 | 0.00 | 0.10 | 0.10 | 95 | 1005.4 |
| 20260507055114 | 49 | 298 | 0.0 | 0.0 | 0.00 | 0.10 | 0.10 | 95 | 1005.5 |
| 20260507054610 | 49 | 290 | 0.0 | 0.0 | 0.00 | 0.10 | 0.10 | 95 | 1005.8 |
| 20260507054108 | 49 | 290 | 0.0 | 0.9 | 0.00 | 0.10 | 0.10 | 95 | 1005.8 |
| 20260507053605 | 49 | 0 | 0.0 | 0.9 | 0.00 | 0.10 | 0.10 | 95 | 1005.9 |
| 20260507053104 | 49 | 271 | 0.0 | 0.9 | 0.05 | 0.10 | 0.10 | 95 | 1005.6 |
| 20260507052601 | 49 | 303 | 0.0 | 1.7 | 0.05 | 0.10 | 0.10 | 95 | 1005.7 |
| 20260507052058 | 49 | 307 | 0.0 | 0.0 | 0.00 | 0.09 | 0.09 | 95 | 1005.9 |
| 20260507051555 | 49 | 272 | 0.0 | 0.9 | 0.00 | 0.09 | 0.09 | 95 | 1006.1 |
| 20260507051052 | 49 | 279 | 0.0 | 0.9 | 0.07 | 0.09 | 0.09 | 95 | 1006.3 |
| 20260507050549 | 49 | 287 | 0.0 | 1.7 | 0.14 | 0.09 | 0.09 | 95 | 1005.8 |
| 20260507050044 | 50 | 327 | 0.9 | 1.7 | 0.12 | 0.08 | 0.08 | 95 | 1006.1 |
| 20260507045542 | 50 | 341 | 2.6 | 3.5 | 0.12 | 0.07 | 0.07 | 95 | 1006.0 |
| 20260507045039 | 50 | 294 | 0.9 | 3.5 | 0.07 | 0.06 | 0.06 | 95 | 1005.9 |
| 20260507044536 | 50 | 296 | 0.0 | 1.7 | 0.00 | 0.05 | 0.05 | 95 | 1005.9 |
| 20260507044033 | 50 | 289 | 1.7 | 2.6 | 0.00 | 0.05 | 0.05 | 95 | 1005.7 |
| 20260507043528 | 50 | 284 | 0.9 | 1.7 | 0.05 | 0.05 | 0.05 | 95 | 1005.9 |
| 20260507043026 | 50 | 287 | 0.0 | 1.7 | 0.05 | 0.05 | 0.05 | 95 | 1005.7 |
| 20260507042521 | 50 | 24 | 0.9 | 2.6 | 0.12 | 0.04 | 0.04 | 95 | 1005.7 |
| 20260507042018 | 51 | 356 | 0.0 | 2.6 | 0.19 | 0.04 | 0.04 | 95 | 1005.6 |
| 20260507041515 | 51 | 15 | 2.6 | 2.6 | 0.12 | 0.02 | 0.02 | 95 | 1005.8 |
| 20260507041012 | 51 | 293 | 1.7 | 1.7 | 0.05 | 0.01 | 0.01 | 95 | 1005.9 |
| 20260507040508 | 51 | 289 | 0.9 | 1.7 | 0.00 | 0.00 | 0.00 | 95 | 1005.6 |
| 20260507040004 | 51 | 340 | 1.7 | 2.6 | 0.07 | 0.46 | 0.46 | 95 | 1005.6 |
| 20260507035500 | 52 | 282 | 0.0 | 2.6 | 0.07 | 0.46 | 0.46 | 95 | 1005.7 |
| 20260507034956 | 52 | 276 | 0.9 | 2.6 | 0.05 | 0.45 | 0.45 | 95 | 1005.6 |
| 20260507034453 | 52 | 317 | 1.7 | 1.7 | 0.05 | 0.45 | 0.45 | 95 | 1005.4 |
| 20260507033951 | 53 | 296 | 1.7 | 2.6 | 0.07 | 0.44 | 0.44 | 94 | 1005.6 |
| 20260507033449 | 55 | 293 | 1.7 | 1.7 | 0.07 | 0.44 | 0.44 | 95 | 1005.1 |
| 20260507032946 | 55 | 275 | 0.0 | 0.0 | 0.07 | 0.43 | 0.43 | 95 | 1004.9 |
| 20260507032443 | 54 | 271 | 0.0 | 0.0 | 0.00 | 0.42 | 0.42 | 95 | 1004.7 |
| 20260507031939 | 54 | 271 | 0.0 | 0.0 | 0.00 | 0.42 | 0.42 | 95 | 1004.4 |
| 20260507031435 | 54 | 272 | 0.0 | 1.7 | 0.00 | 0.42 | 0.42 | 95 | 1004.7 |
| 20260507030932 | 54 | 251 | 0.0 | 0.9 | 0.05 | 0.42 | 0.42 | 95 | 1004.5 |
| 20260507030429 | 54 | 244 | 0.0 | 2.6 | 0.05 | 0.42 | 0.42 | 95 | 1004.6 |
| 20260507025926 | 54 | 247 | 0.0 | 1.7 | 0.07 | 0.41 | 0.41 | 95 | 1004.7 |
| 20260507025424 | 55 | 255 | 0.0 | 3.5 | 0.07 | 0.41 | 0.41 | 95 | 1004.5 |
| 20260507024921 | 55 | 146 | 1.7 | 3.5 | 0.00 | 0.40 | 0.40 | 95 | 1004.5 |
| 20260507024419 | 55 | 236 | 0.9 | 1.7 | 0.00 | 0.40 | 0.40 | 95 | 1004.6 |
| 20260507023915 | 55 | 218 | 0.0 | 1.7 | 0.00 | 0.40 | 0.40 | 95 | 1004.5 |
| 20260507023411 | 55 | 212 | 0.9 | 6.1 | 0.00 | 0.40 | 0.40 | 94 | 1004.7 |
| 20260507022909 | 55 | 232 | 2.6 | 3.5 | 0.00 | 0.40 | 0.40 | 95 | 1004.7 |
| 20260507022405 | 55 | 232 | 2.6 | 6.1 | 0.05 | 0.40 | 0.40 | 95 | 1004.7 |
| 20260507021901 | 55 | 174 | 3.5 | 6.1 | 0.00 | 0.39 | 0.39 | 95 | 1004.6 |
| 20260507021356 | 55 | 249 | 0.9 | 2.6 | 0.07 | 0.39 | 0.39 | 95 | 1004.6 |
| 20260507020855 | 55 | 192 | 2.6 | 3.5 | 0.00 | 0.38 | 0.38 | 95 | 1004.5 |
| 20260507020351 | 56 | 237 | 1.7 | 2.6 | 0.05 | 0.38 | 0.38 | 95 | 1004.6 |
| 20260507015849 | 56 | 215 | 1.7 | 5.2 | 0.05 | 0.38 | 0.38 | 95 | 1004.4 |
| 20260507015347 | 56 | 103 | 3.5 | 5.2 | 0.00 | 0.37 | 0.37 | 95 | 1004.6 |
| 20260507014843 | 56 | 234 | 0.9 | 5.2 | 0.00 | 0.37 | 0.37 | 95 | 1004.6 |
| 20260507014339 | 56 | 187 | 2.6 | 5.2 | 0.00 | 0.37 | 0.37 | 95 | 1004.6 |
| 20260507013836 | 56 | 210 | 2.6 | 5.2 | 0.00 | 0.37 | 0.37 | 95 | 1004.6 |
| 20260507013333 | 56 | 154 | 3.5 | 5.2 | 0.00 | 0.37 | 0.37 | 95 | 1004.8 |
| 20260507012831 | 56 | 160 | 3.5 | 7.8 | 0.00 | 0.37 | 0.37 | 95 | 1005.0 |
| 20260507012326 | 56 | 268 | 0.0 | 1.7 | 0.00 | 0.37 | 0.37 | 95 | 1005.1 |
| 20260507011824 | 56 | 246 | 3.5 | 6.1 | 0.00 | 0.37 | 0.37 | 95 | 1005.1 |
| 20260507011321 | 56 | 248 | 1.7 | 7.0 | 0.00 | 0.37 | 0.37 | 95 | 1005.2 |
| 20260507010820 | 56 | 250 | 0.0 | 3.5 | 0.00 | 0.37 | 0.37 | 95 | 1005.0 |
| 20260507010316 | 56 | 155 | 1.7 | 2.6 | 0.00 | 0.37 | 0.37 | 95 | 1005.2 |
| 20260507005813 | 56 | 167 | 0.9 | 1.7 | 0.00 | 0.37 | 0.37 | 95 | 1005.3 |
| 20260507005310 | 56 | 245 | 0.9 | 3.5 | 0.00 | 0.37 | 0.37 | 95 | 1005.4 |
| 20260507004807 | 56 | 187 | 0.9 | 5.2 | 0.00 | 0.37 | 0.37 | 95 | 1005.7 |
| 20260507004304 | 56 | 144 | 1.7 | 3.5 | 0.00 | 0.37 | 0.37 | 95 | 1005.4 |
| 20260507003800 | 56 | 167 | 0.9 | 3.5 | 0.00 | 0.37 | 0.37 | 94 | 1005.5 |
| 20260507003255 | 56 | 161 | 1.7 | 2.6 | 0.00 | 0.37 | 0.37 | 94 | 1005.6 |
| 20260507002751 | 56 | 134 | 3.5 | 3.5 | 0.00 | 0.37 | 0.37 | 94 | 1005.4 |
| 20260507002247 | 56 | 162 | 0.9 | 1.7 | 0.00 | 0.37 | 0.37 | 94 | 1005.6 |
| 20260507001745 | 56 | 229 | 1.7 | 5.2 | 0.07 | 0.37 | 0.37 | 94 | 1005.4 |
| 20260507001242 | 56 | 196 | 0.0 | 3.5 | 0.07 | 0.37 | 0.37 | 94 | 1005.5 |
| 20260507000738 | 56 | 272 | 0.0 | 2.6 | 0.00 | 0.36 | 0.36 | 94 | 1005.5 |
| 20260507000234 | 56 | 249 | 0.0 | 0.9 | 0.00 | 0.36 | 0.36 | 94 | 1005.6 |
| 20260506235731 | 56 | 253 | 0.0 | 0.9 | 0.00 | 0.36 | 0.36 | 94 | 1005.8 |
| 20260506235226 | 56 | 251 | 0.9 | 3.5 | 0.00 | 0.36 | 0.36 | 94 | 1005.7 |
| 20260506234723 | 56 | 245 | 3.5 | 5.2 | 0.00 | 0.36 | 0.36 | 94 | 1006.0 |
| 20260506234221 | 56 | 244 | 1.7 | 8.7 | 0.00 | 0.36 | 0.36 | 94 | 1005.7 |
| 20260506233718 | 56 | 243 | 3.5 | 9.6 | 0.00 | 0.36 | 0.36 | 94 | 1005.8 |
| 20260506233214 | 55 | 193 | 1.7 | 2.6 | 0.00 | 0.36 | 0.36 | 94 | 1005.9 |
| 20260506232711 | 55 | 194 | 3.5 | 5.2 | 0.00 | 0.36 | 0.36 | 94 | 1005.9 |
| 20260506232206 | 55 | 149 | 3.5 | 6.1 | 0.00 | 0.36 | 0.36 | 94 | 1005.7 |
| 20260506231703 | 55 | 151 | 1.7 | 3.5 | 0.00 | 0.36 | 0.36 | 94 | 1005.9 |
| 20260506231202 | 55 | 267 | 0.9 | 3.5 | 0.00 | 0.36 | 0.36 | 94 | 1005.8 |
| 20260506230658 | 55 | 223 | 1.7 | 2.6 | 0.00 | 0.36 | 0.36 | 94 | 1006.0 |
| 20260506230155 | 55 | 178 | 0.9 | 1.7 | 0.00 | 0.36 | 0.36 | 94 | 1006.0 |
| 20260506225651 | 55 | 226 | 2.6 | 5.2 | 0.00 | 0.36 | 0.36 | 93 | 1006.1 |
| 20260506225148 | 55 | 26 | 0.9 | 5.2 | 0.00 | 0.36 | 0.36 | 93 | 1006.3 |
| 20260506224645 | 55 | 256 | 0.0 | 7.0 | 0.00 | 0.36 | 0.36 | 93 | 1006.4 |
| 20260506224141 | 55 | 261 | 0.0 | 2.6 | 0.00 | 0.36 | 0.36 | 93 | 1006.1 |
| 20260506223638 | 55 | 245 | 1.7 | 2.6 | 0.05 | 0.36 | 0.36 | 93 | 1006.6 |
| 20260506223134 | 56 | 149 | 1.7 | 3.5 | 0.05 | 0.36 | 0.36 | 93 | 1006.5 |
| 20260506222631 | 56 | 230 | 1.7 | 3.5 | 0.07 | 0.35 | 0.35 | 93 | 1006.6 |
| 20260506222127 | 56 | 198 | 3.5 | 6.1 | 0.12 | 0.35 | 0.35 | 93 | 1006.3 |
| 20260506221625 | 56 | 136 | 1.7 | 3.5 | 0.12 | 0.34 | 0.34 | 93 | 1006.7 |
| 20260506221123 | 56 | 252 | 3.5 | 5.2 | 0.12 | 0.33 | 0.33 | 93 | 1006.7 |
| 20260506220619 | 56 | 272 | 0.0 | 2.6 | 0.12 | 0.32 | 0.32 | 93 | 1006.9 |
| 20260506220114 | 56 | 274 | 0.0 | 0.9 | 0.07 | 0.31 | 0.31 | 93 | 1006.8 |
| 20260506215612 | 56 | 248 | 1.7 | 3.5 | 0.12 | 0.30 | 0.30 | 93 | 1007.0 |
| 20260506215107 | 56 | 225 | 1.7 | 2.6 | 0.12 | 0.30 | 0.30 | 93 | 1006.8 |
| 20260506214604 | 56 | 142 | 2.6 | 3.5 | 0.00 | 0.28 | 0.28 | 93 | 1006.7 |
| 20260506214101 | 56 | 177 | 0.9 | 3.5 | 0.07 | 0.28 | 0.28 | 93 | 1006.8 |
| 20260506213559 | 56 | 307 | 0.0 | 1.7 | 0.07 | 0.28 | 0.28 | 93 | 1006.4 |
| 20260506213056 | 56 | 215 | 1.7 | 6.1 | 0.05 | 0.27 | 0.27 | 93 | 1006.6 |
| 20260506212553 | 56 | 220 | 0.9 | 2.6 | 0.05 | 0.27 | 0.27 | 93 | 1006.4 |
| 20260506212048 | 56 | 211 | 0.9 | 1.7 | 0.00 | 0.26 | 0.26 | 93 | 1006.7 |
| 20260506211544 | 56 | 149 | 1.7 | 6.1 | 0.07 | 0.26 | 0.26 | 93 | 1006.6 |
| 20260506211041 | 56 | 181 | 1.7 | 3.5 | 0.07 | 0.26 | 0.26 | 93 | 1006.5 |
| 20260506210538 | 57 | 170 | 2.6 | 7.0 | 0.05 | 0.25 | 0.25 | 92 | 1006.6 |
| 20260506210035 | 57 | 139 | 0.9 | 2.6 | 0.05 | 0.25 | 0.25 | 92 | 1006.7 |
| 20260506205532 | 57 | 144 | 2.6 | 5.2 | 0.00 | 0.24 | 0.24 | 92 | 1006.6 |
| 20260506205027 | 57 | 226 | 1.7 | 6.1 | 0.07 | 0.24 | 0.24 | 92 | 1006.5 |
| 20260506204525 | 57 | 240 | 1.7 | 5.2 | 0.07 | 0.24 | 0.24 | 92 | 1006.8 |
| 20260506204022 | 57 | 202 | 3.5 | 5.2 | 0.05 | 0.23 | 0.23 | 92 | 1007.0 |
| 20260506203520 | 57 | 244 | 2.6 | 3.5 | 0.05 | 0.23 | 0.23 | 92 | 1006.8 |
| 20260506203016 | 57 | 237 | 2.6 | 7.8 | 0.07 | 0.22 | 0.22 | 91 | 1006.9 |
| 20260506202514 | 57 | 254 | 0.0 | 2.6 | 0.07 | 0.22 | 0.22 | 92 | 1006.9 |
| 20260506202009 | 57 | 248 | 1.7 | 2.6 | 0.05 | 0.21 | 0.21 | 91 | 1006.8 |
| 20260506201508 | 57 | 157 | 1.7 | 6.1 | 0.07 | 0.20 | 0.20 | 91 | 1007.0 |
| 20260506201005 | 57 | 139 | 1.7 | 5.2 | 0.12 | 0.20 | 0.20 | 91 | 1007.0 |
| 20260506200501 | 57 | 230 | 1.7 | 7.0 | 0.05 | 0.19 | 0.19 | 91 | 1006.8 |
| 20260506195957 | 57 | 130 | 1.7 | 7.8 | 0.07 | 0.18 | 0.18 | 91 | 1007.2 |
| 20260506195455 | 57 | 138 | 3.5 | 7.0 | 0.14 | 0.18 | 0.18 | 91 | 1007.2 |
| 20260506194950 | 57 | 154 | 2.6 | 3.5 | 0.07 | 0.17 | 0.17 | 91 | 1007.3 |
| 20260506194448 | 57 | 238 | 0.9 | 1.7 | 0.05 | 0.16 | 0.16 | 91 | 1007.3 |
| 20260506193944 | 57 | 239 | 0.0 | 1.7 | 0.07 | 0.15 | 0.15 | 90 | 1007.4 |
| 20260506193442 | 57 | 221 | 0.0 | 1.7 | 0.31 | 0.15 | 0.15 | 90 | 1007.4 |
| 20260506192938 | 58 | 28 | 0.9 | 3.5 | 0.28 | 0.14 | 0.14 | 89 | 1007.2 |
| 20260506192435 | 58 | 194 | 0.9 | 2.6 | 0.12 | 0.10 | 0.10 | 89 | 1007.6 |
| 20260506191932 | 58 | 205 | 2.6 | 2.6 | 0.12 | 0.09 | 0.09 | 88 | 1007.5 |
| 20260506191428 | 58 | 230 | 0.9 | 1.7 | 0.12 | 0.08 | 0.08 | 88 | 1007.3 |
| 20260506190925 | 59 | 169 | 2.6 | 2.6 | 0.07 | 0.07 | 0.07 | 88 | 1007.1 |
| 20260506190422 | 59 | 220 | 1.7 | 2.6 | 0.05 | 0.06 | 0.06 | 87 | 1007.3 |
| 20260506185919 | 59 | 9 | 0.0 | 0.0 | 0.12 | 0.06 | 0.06 | 87 | 1007.1 |
| 20260506185416 | 59 | 233 | 0.0 | 0.9 | 0.14 | 0.05 | 0.05 | 86 | 1007.4 |
| 20260506184913 | 60 | 224 | 0.9 | 1.7 | 0.12 | 0.04 | 0.04 | 85 | 1007.3 |
| 20260506184410 | 60 | 243 | 0.0 | 0.9 | 0.12 | 0.03 | 0.03 | 84 | 1007.2 |
| 20260506183907 | 60 | 246 | 0.9 | 2.6 | 0.12 | 0.02 | 0.02 | 82 | 1007.3 |
| 20260506183402 | 61 | 238 | 0.9 | 2.6 | 0.05 | 0.01 | 0.01 | 80 | 1007.2 |
| 20260506182900 | 61 | 245 | 0.0 | 0.9 | 0.00 | 0.00 | 0.00 | 78 | 1007.1 |
| 20260506182357 | 62 | 226 | 0.9 | 6.1 | 0.00 | 0.00 | 0.00 | 77 | 1007.3 |
| 20260506181854 | 62 | 215 | 3.5 | 5.2 | 0.00 | 0.00 | 0.00 | 77 | 1007.3 |
| 20260506181352 | 62 | 181 | 0.0 | 2.6 | 0.00 | 0.00 | 0.00 | 78 | 1007.3 |
| 20260506180849 | 62 | 180 | 1.7 | 1.7 | 0.00 | 0.00 | 0.00 | 78 | 1007.5 |
| 20260506180345 | 62 | 247 | 0.0 | 1.7 | 0.00 | 0.00 | 0.00 | 78 | 1007.6 |
| 20260506175841 | 62 | 145 | 1.7 | 2.6 | 0.00 | 0.00 | 0.00 | 77 | 1007.6 |
| 20260506175338 | 62 | 204 | 0.9 | 5.2 | 0.00 | 0.00 | 0.00 | 77 | 1007.7 |
| 20260506174835 | 62 | 171 | 0.9 | 2.6 | 0.00 | 0.00 | 0.00 | 77 | 1007.5 |
| 20260506174333 | 62 | 191 | 0.9 | 5.2 | 0.00 | 0.00 | 0.00 | 76 | 1007.6 |
| 20260506173830 | 63 | 139 | 3.5 | 7.0 | 0.00 | 0.00 | 0.00 | 74 | 1007.9 |
| 20260506173327 | 63 | 191 | 0.9 | 1.7 | 0.00 | 0.00 | 0.00 | 73 | 1008.0 |
| 20260506172824 | 64 | 199 | 2.6 | 5.2 | 0.00 | 0.00 | 0.00 | 72 | 1007.9 |
| 20260506172320 | 63 | 250 | 0.9 | 1.7 | 0.00 | 0.00 | 0.00 | 73 | 1008.0 |
| 20260506171818 | 63 | 229 | 0.9 | 3.5 | 0.00 | 0.00 | 0.00 | 73 | 1008.2 |
| 20260506171315 | 63 | 159 | 4.3 | 5.2 | 0.00 | 0.00 | 0.00 | 73 | 1008.2 |
| 20260506170813 | 63 | 219 | 2.6 | 3.5 | 0.00 | 0.00 | 0.00 | 73 | 1008.4 |
| 20260506170308 | 63 | 120 | 0.9 | 1.7 | 0.00 | 0.00 | 0.00 | 74 | 1008.6 |
| 20260506165808 | 63 | 159 | 2.6 | 3.5 | 0.00 | 0.00 | 0.00 | 73 | 1008.7 |
| 20260506165305 | 63 | 226 | 4.3 | 7.0 | 0.00 | 0.00 | 0.00 | 73 | 1008.8 |
| 20260506164801 | 63 | 182 | 2.6 | 3.5 | 0.00 | 0.00 | 0.00 | 73 | 1008.6 |
| 20260506164258 | 64 | 200 | 1.7 | 5.2 | 0.00 | 0.00 | 0.00 | 72 | 1008.8 |
| 20260506163755 | 64 | 133 | 0.9 | 2.6 | 0.00 | 0.00 | 0.00 | 72 | 1008.7 |
| 20260506163250 | 64 | 249 | 2.6 | 2.6 | 0.00 | 0.00 | 0.00 | 71 | 1009.1 |
| 20260506162746 | 64 | 231 | 0.0 | 2.6 | 0.00 | 0.00 | 0.00 | 72 | 1009.2 |
| 20260506162244 | 64 | 247 | 0.0 | 1.7 | 0.00 | 0.00 | 0.00 | 71 | 1009.1 |
| 20260506161741 | 64 | 241 | 0.0 | 3.5 | 0.00 | 0.00 | 0.00 | 71 | 1009.1 |
| 20260506161238 | 64 | 208 | 0.9 | 3.5 | 0.00 | 0.00 | 0.00 | 71 | 1009.2 |
| 20260506160730 | 64 | 156 | 3.5 | 5.2 | 0.00 | 0.00 | 0.00 | 71 | 1009.3 |
| 20260506160227 | 64 | 151 | 3.5 | 6.1 | 0.00 | 0.00 | 0.00 | 71 | 1009.3 |
| 20260506155725 | 64 | 186 | 1.7 | 2.6 | 0.00 | 0.00 | 0.00 | 71 | 1009.4 |
| 20260506155222 | 64 | 147 | 1.7 | 3.5 | 0.00 | 0.00 | 0.00 | 71 | 1009.3 |
| 20260506153329 | 63 | 10 | 1.7 | 5.2 | 0.00 | 0.00 | 0.00 | 71 | 1009.4 |
| 20260506152826 | 63 | 232 | 1.7 | 3.5 | 0.00 | 0.00 | 0.00 | 71 | 1009.4 |
| 20260506152323 | 63 | 199 | 0.9 | 1.7 | 0.00 | 0.00 | 0.00 | 72 | 1009.3 |
| 20260506151822 | 62 | 220 | 1.7 | 2.6 | 0.00 | 0.00 | 0.00 | 72 | 1009.4 |
| 20260506151318 | 63 | 165 | 1.7 | 5.2 | 0.00 | 0.00 | 0.00 | 72 | 1009.4 |
| 20260506150815 | 63 | 99 | 1.7 | 3.5 | 0.00 | 0.00 | 0.00 | 72 | 1009.3 |
| 20260506150312 | 63 | 254 | 0.9 | 3.5 | 0.00 | 0.00 | 0.00 | 72 | 1009.1 |
| 20260506145809 | 63 | 185 | 1.7 | 2.6 | 0.00 | 0.00 | 0.00 | 72 | 1009.0 |
| 20260506145306 | 63 | 200 | 1.7 | 3.5 | 0.00 | 0.00 | 0.00 | 72 | 1009.0 |
| 20260506144803 | 62 | 246 | 0.0 | 2.6 | 0.00 | 0.00 | 0.00 | 72 | 1009.2 |
| 20260506144259 | 62 | 194 | 1.7 | 5.2 | 0.00 | 0.00 | 0.00 | 72 | 1009.3 |
| 20260506143757 | 62 | 242 | 0.0 | 0.0 | 0.00 | 0.00 | 0.00 | 72 | 1009.3 |
| 20260506143254 | 62 | 247 | 0.9 | 2.6 | 0.00 | 0.00 | 0.00 | 72 | 1009.6 |
| 20260506142753 | 61 | 166 | 1.7 | 2.6 | 0.00 | 0.00 | 0.00 | 73 | 1009.7 |
| 20260506142250 | 61 | 228 | 0.9 | 1.7 | 0.00 | 0.00 | 0.00 | 73 | 1009.8 |
| 20260506141748 | 61 | 219 | 0.0 | 2.6 | 0.00 | 0.00 | 0.00 | 73 | 1009.7 |
| 20260506141246 | 61 | 211 | 1.7 | 1.7 | 0.00 | 0.00 | 0.00 | 73 | 1009.6 |
| 20260506140744 | 61 | 249 | 0.0 | 2.6 | 0.00 | 0.00 | 0.00 | 73 | 1009.7 |
| 20260506140241 | 61 | 230 | 0.9 | 1.7 | 0.00 | 0.00 | 0.00 | 73 | 1009.8 |
| 20260506135737 | 61 | 170 | 1.7 | 5.2 | 0.00 | 0.00 | 0.00 | 73 | 1010.1 |
| 20260506135233 | 60 | 175 | 0.9 | 1.7 | 0.00 | 0.00 | 0.00 | 73 | 1009.9 |
| 20260506134731 | 60 | 243 | 0.9 | 1.7 | 0.00 | 0.00 | 0.00 | 72 | 1009.9 |
| 20260506134227 | 60 | 201 | 0.9 | 0.9 | 0.00 | 0.00 | 0.00 | 72 | 1009.7 |
| 20260506133725 | 60 | 256 | 0.0 | 1.7 | 0.00 | 0.00 | 0.00 | 73 | 1009.7 |
| 20260506133221 | 60 | 289 | 0.0 | 0.0 | 0.00 | 0.00 | 0.00 | 73 | 1009.8 |
| 20260506132718 | 60 | 245 | 0.9 | 0.9 | 0.00 | 0.00 | 0.00 | 73 | 1009.8 |
| 20260506132215 | 60 | 226 | 1.7 | 2.6 | 0.00 | 0.00 | 0.00 | 72 | 1009.8 |
| 20260506131713 | 60 | 140 | 1.7 | 2.6 | 0.00 | 0.00 | 0.00 | 72 | 1009.7 |
| 20260506131208 | 60 | 54 | 1.7 | 1.7 | 0.00 | 0.00 | 0.00 | 73 | 1009.7 |
| 20260506130705 | 59 | 276 | 0.0 | 1.7 | 0.00 | 0.00 | 0.00 | 73 | 1010.0 |
| 20260506130203 | 59 | 222 | 0.0 | 1.7 | 0.00 | 0.00 | 0.00 | 73 | 1009.9 |
| 20260506125701 | 59 | 241 | 0.0 | 2.6 | 0.00 | 0.00 | 0.00 | 73 | 1010.0 |
| 20260506125158 | 59 | 213 | 0.9 | 1.7 | 0.00 | 0.00 | 0.00 | 73 | 1010.0 |
| 20260506124656 | 59 | 277 | 1.7 | 2.6 | 0.00 | 0.00 | 0.00 | 73 | 1010.0 |
| 20260506124154 | 59 | 48 | 1.7 | 2.6 | 0.00 | 0.00 | 0.00 | 72 | 1010.3 |
| 20260506123651 | 59 | 249 | 0.0 | 1.7 | 0.00 | 0.00 | 0.00 | 73 | 1010.3 |
| 20260506123150 | 59 | 250 | 0.0 | 1.7 | 0.00 | 0.00 | 0.00 | 74 | 1010.5 |
| 20260506122646 | 58 | 245 | 0.0 | 0.9 | 0.00 | 0.00 | 0.00 | 75 | 1010.7 |
| 20260506122144 | 58 | 241 | 0.0 | 1.7 | 0.00 | 0.00 | 0.00 | 75 | 1010.7 |
| 20260506121641 | 58 | 54 | 0.9 | 1.7 | 0.00 | 0.00 | 0.00 | 75 | 1010.9 |
| 20260506121137 | 57 | 223 | 0.0 | 0.9 | 0.00 | 0.00 | 0.00 | 76 | 1010.5 |
| 20260506120635 | 57 | 249 | 2.6 | 2.6 | 0.00 | 0.00 | 0.00 | 75 | 1010.5 |
| 20260506120132 | 57 | 228 | 0.9 | 2.6 | 0.00 | 0.00 | 0.00 | 75 | 1010.6 |
| 20260506115631 | 57 | 185 | 0.9 | 2.6 | 0.00 | 0.00 | 0.00 | 75 | 1010.8 |
| 20260506115129 | 57 | 234 | 2.6 | 2.6 | 0.00 | 0.00 | 0.00 | 76 | 1010.7 |
| 20260506114626 | 57 | 256 | 0.9 | 2.6 | 0.00 | 0.00 | 0.00 | 76 | 1010.8 |
| 20260506114124 | 57 | 174 | 1.7 | 1.7 | 0.00 | 0.00 | 0.00 | 76 | 1010.8 |
| 20260506113622 | 57 | 178 | 1.7 | 1.7 | 0.00 | 0.00 | 0.00 | 77 | 1010.8 |
| 20260506113119 | 56 | 243 | 0.0 | 0.0 | 0.00 | 0.00 | 0.00 | 77 | 1010.8 |
| 20260506112615 | 56 | 254 | 0.0 | 0.0 | 0.00 | 0.00 | 0.00 | 78 | 1010.6 |
| 20260506112113 | 56 | 223 | 0.9 | 0.9 | 0.00 | 0.00 | 0.00 | 78 | 1010.7 |
| 20260506111610 | 56 | 245 | 0.0 | 0.9 | 0.00 | 0.00 | 0.00 | 78 | 1010.8 |
| 20260506111108 | 56 | 248 | 0.0 | 0.9 | 0.00 | 0.00 | 0.00 | 78 | 1010.8 |
| 20260506110605 | 56 | 251 | 0.0 | 0.0 | 0.00 | 0.00 | 0.00 | 78 | 1010.7 |
| 20260506105558 | 55 | 256 | 0.0 | 0.9 | 0.00 | 0.00 | 0.00 | 78 | 1010.6 |